Simultaneous Nadir Overpasses (SNOs) Predictions

Prediction of SNOs over PacNW region [( 10.00, 139.50) to ( 22.70, 165.60)] between AQUA and NPP Satellites:

Table of predicted SNOs over PacNW region for the next 30.0 days since TLE Epoch: 1/29/2022
Index Date (AQUA) Time (AQUA) AQUA Lat,Lon Date (NPP) Time (NPP) NPP Lat,Lon Distance(km) Time Diff (sec)
1 01/30/2022 15:10:32 22.60, 159.92 01/30/2022 15:11:13 23.18, 157.29 277.31 41
2 02/07/2022 15:59:52 22.60, 147.61 02/07/2022 16:01:44 23.28, 144.67 310.55 112
3 02/15/2022 15:10:16 22.59, 160.03 02/15/2022 15:10:47 23.19, 157.39 279.46 31
4 02/23/2022 15:59:30 22.64, 147.76 02/23/2022 16:01:16 23.31, 144.78 314.00 106
